When you browse on this site, cookies collect data to enhance your experience and personalize the content and advertising you see.
Visit our Privacy Policy to learn more. By continuing to use the site, you agree to this use of cookies and data.

Hourly Weather Proshkovo

Today, 16 July, Thursday

Time Temperature Precipitation Wind Pressure Humidity
00:00 +11°C° 0.1 mm 4 mps 745 mmHg 93%
01:00 +11°C° 0.1 mm 4 mps 745 mmHg 94%
02:00 +11°C° 0 mm 4 mps 744 mmHg 93%
03:00 +11°C° 0.1 mm 4 mps 744 mmHg 93%
04:00 +11°C° 0.1 mm 4 mps 744 mmHg 93%
05:00 +11°C° 0.1 mm 4 mps 744 mmHg 93%
06:00 +12°C° 0 mm 4 mps 744 mmHg 89%
07:00 +13°C° 0 mm 4 mps 744 mmHg 86%
08:00 +14°C° 0 mm 4 mps 744 mmHg 83%
09:00 +14°C° 0.1 mm 4 mps 744 mmHg 84%
10:00 +14°C° 0.1 mm 4 mps 745 mmHg 84%
11:00 +14°C° 0.1 mm 3 mps 745 mmHg 85%
12:00 +14°C° 0 mm 3 mps 745 mmHg 81%
13:00 +16°C° 0 mm 3 mps 745 mmHg 77%
14:00 +17°C° 0 mm 3 mps 745 mmHg 73%
15:00 +17°C° 0 mm 3 mps 746 mmHg 72%
16:00 +18°C° 0 mm 2 mps 746 mmHg 72%
17:00 +18°C° 0 mm 2 mps 746 mmHg 71%
18:00 +18°C° 0 mm 1 mps 746 mmHg 77%
19:00 +16°C° 0 mm 1 mps 746 mmHg 82%
20:00 +15°C° 0 mm 1 mps 746 mmHg 88%
21:00 +13°C° 0 mm 0 mps 746 mmHg 90%
22:00 +12°C° 0 mm 0 mps 746 mmHg 92%
23:00 +11°C° 0 mm 0 mps 746 mmHg 94%

Tomorrow, 17 July, Friday

Time Temperature Precipitation Wind Pressure Humidity
00:00 +12°C° 0 mm 1 mps 747 mmHg 95%
01:00 +12°C° 0 mm 1 mps 747 mmHg 95%
02:00 +11°C° 0 mm 1 mps 747 mmHg 96%
03:00 +12°C° 0 mm 1 mps 747 mmHg 95%
04:00 +12°C° 0 mm 1 mps 747 mmHg 93%
05:00 +12°C° 0 mm 1 mps 747 mmHg 92%
06:00 +13°C° 0 mm 2 mps 748 mmHg 88%
07:00 +14°C° 0 mm 2 mps 748 mmHg 84%
08:00 +15°C° 0 mm 2 mps 748 mmHg 80%
09:00 +16°C° 0 mm 2 mps 748 mmHg 74%
10:00 +17°C° 0 mm 3 mps 748 mmHg 69%
11:00 +19°C° 0 mm 3 mps 749 mmHg 63%
12:00 +19°C° 0 mm 3 mps 749 mmHg 62%
13:00 +20°C° 0 mm 3 mps 749 mmHg 60%
14:00 +21°C° 0 mm 2 mps 749 mmHg 58%
15:00 +21°C° 0 mm 2 mps 749 mmHg 58%
16:00 +21°C° 0 mm 2 mps 749 mmHg 58%
17:00 +21°C° 0 mm 2 mps 749 mmHg 58%
18:00 +21°C° 0 mm 1 mps 749 mmHg 65%
19:00 +19°C° 0 mm 1 mps 749 mmHg 73%
20:00 +15°C° 0 mm 0 mps 750 mmHg 80%
21:00 +14°C° 0 mm 0 mps 750 mmHg 83%
22:00 +14°C° 0 mm 1 mps 750 mmHg 86%
23:00 +13°C° 0 mm 1 mps 751 mmHg 89%

Day after tomorrow, 18 July, Saturday

Time Temperature Precipitation Wind Pressure Humidity
00:00 +13°C° 0 mm 1 mps 751 mmHg 90%
01:00 +12°C° 0 mm 1 mps 751 mmHg 92%
02:00 +11°C° 0 mm 1 mps 751 mmHg 93%
03:00 +12°C° 0 mm 1 mps 751 mmHg 92%
04:00 +12°C° 0 mm 1 mps 751 mmHg 90%
05:00 +11°C° 0 mm 0 mps 752 mmHg 89%
06:00 +15°C° 0 mm 1 mps 752 mmHg 80%
07:00 +18°C° 0 mm 1 mps 752 mmHg 71%
08:00 +20°C° 0 mm 1 mps 752 mmHg 62%
09:00 +21°C° 0 mm 1 mps 752 mmHg 56%
10:00 +21°C° 0 mm 2 mps 752 mmHg 49%
11:00 +24°C° 0 mm 2 mps 752 mmHg 43%
12:00 +24°C° 0 mm 2 mps 752 mmHg 41%
13:00 +25°C° 0 mm 2 mps 752 mmHg 40%
14:00 +25°C° 0 mm 2 mps 751 mmHg 38%
15:00 +25°C° 0 mm 2 mps 751 mmHg 42%
16:00 +25°C° 0 mm 2 mps 751 mmHg 45%
17:00 +25°C° 0 mm 1 mps 751 mmHg 49%
18:00 +23°C° 0 mm 1 mps 751 mmHg 57%
19:00 +21°C° 0 mm 1 mps 751 mmHg 64%
20:00 +17°C° 0 mm 0 mps 751 mmHg 72%
21:00 +16°C° 0 mm 0 mps 751 mmHg 73%
22:00 +15°C° 0 mm 0 mps 751 mmHg 73%
23:00 +14°C° 0 mm 0 mps 751 mmHg 74%

19 July, Sunday

Time Temperature Precipitation Wind Pressure Humidity
00:00 +14°C° 0 mm 0 mps 752 mmHg 76%
01:00 +14°C° 0 mm 1 mps 752 mmHg 79%
02:00 +14°C° 0 mm 1 mps 752 mmHg 82%
03:00 +14°C° 0 mm 1 mps 752 mmHg 83%
04:00 +14°C° 0 mm 1 mps 752 mmHg 85%
05:00 +14°C° 0 mm 0 mps 752 mmHg 86%
06:00 +16°C° 0 mm 0 mps 752 mmHg 78%
07:00 +18°C° 0 mm 0 mps 752 mmHg 69%
08:00 +20°C° 0 mm 0 mps 752 mmHg 61%
09:00 +23°C° 0 mm 1 mps 752 mmHg 56%
10:00 +24°C° 0 mm 1 mps 751 mmHg 51%
11:00 +26°C° 0 mm 1 mps 751 mmHg 47%
12:00 +25°C° 0.1 mm 1 mps 751 mmHg 50%
13:00 +25°C° 0.1 mm 1 mps 751 mmHg 52%
14:00 +25°C° 0.1 mm 2 mps 751 mmHg 55%
15:00 +24°C° 0.4 mm 2 mps 751 mmHg 63%
16:00 +23°C° 0.4 mm 1 mps 750 mmHg 71%
17:00 +22°C° 0.4 mm 1 mps 750 mmHg 79%
18:00 +19°C° 0.8 mm 2 mps 750 mmHg 84%
19:00 +18°C° 0.8 mm 2 mps 750 mmHg 89%
20:00 +16°C° 0.8 mm 3 mps 750 mmHg 94%
21:00 +16°C° 0.1 mm 2 mps 750 mmHg 94%
22:00 +15°C° 0.1 mm 2 mps 750 mmHg 94%
23:00 +15°C° 0.1 mm 1 mps 750 mmHg 93%

20 July, Monday

Time Temperature Precipitation Wind Pressure Humidity
00:00 +15°C° 0 mm 1 mps 750 mmHg 94%
01:00 +14°C° 0 mm 1 mps 750 mmHg 95%
02:00 +14°C° 0 mm 1 mps 750 mmHg 96%
03:00 +14°C° 0 mm 1 mps 749 mmHg 97%
04:00 +14°C° 0 mm 1 mps 749 mmHg 97%
05:00 +14°C° 0 mm 1 mps 749 mmHg 97%
06:00 +16°C° 0 mm 1 mps 749 mmHg 92%
07:00 +18°C° 0 mm 1 mps 749 mmHg 88%
08:00 +20°C° 0 mm 1 mps 749 mmHg 84%
09:00 +22°C° 0.1 mm 1 mps 749 mmHg 74%
10:00 +24°C° 0.1 mm 2 mps 749 mmHg 64%
11:00 +25°C° 0.1 mm 2 mps 749 mmHg 55%
12:00 +26°C° 0.2 mm 2 mps 748 mmHg 53%
13:00 +26°C° 0.2 mm 2 mps 748 mmHg 51%
14:00 +27°C° 0.2 mm 2 mps 748 mmHg 49%
15:00 +26°C° 0.2 mm 2 mps 748 mmHg 52%
16:00 +26°C° 0.2 mm 2 mps 747 mmHg 55%
17:00 +26°C° 0.2 mm 1 mps 747 mmHg 58%
18:00 +23°C° 0.2 mm 1 mps 747 mmHg 67%
19:00 +21°C° 0.2 mm 1 mps 747 mmHg 76%
20:00 +19°C° 0.2 mm 1 mps 747 mmHg 85%
21:00 +18°C° 0.1 mm 1 mps 747 mmHg 87%
22:00 +18°C° 0.1 mm 1 mps 747 mmHg 89%
23:00 +15°C° 0.1 mm 0 mps 747 mmHg 91%

21 July, Tuesday

Time Temperature Precipitation Wind Pressure Humidity
00:00 +14°C° 0 mm 0 mps 747 mmHg 91%
01:00 +14°C° 0 mm 0 mps 746 mmHg 92%
02:00 +14°C° 0 mm 0 mps 746 mmHg 92%
03:00 +15°C° 0 mm 1 mps 746 mmHg 93%
04:00 +15°C° 0 mm 1 mps 746 mmHg 93%
05:00 +15°C° 0 mm 1 mps 746 mmHg 93%
06:00 +18°C° 0 mm 1 mps 745 mmHg 87%
07:00 +20°C° 0 mm 1 mps 745 mmHg 80%
08:00 +22°C° 0 mm 1 mps 745 mmHg 73%
09:00 +24°C° 0.2 mm 1 mps 744 mmHg 66%
10:00 +25°C° 0.2 mm 1 mps 744 mmHg 59%
11:00 +26°C° 0.2 mm 2 mps 744 mmHg 52%
12:00 +27°C° 0.1 mm 2 mps 743 mmHg 52%
13:00 +27°C° 0.1 mm 2 mps 743 mmHg 51%
14:00 +27°C° 0.1 mm 2 mps 742 mmHg 50%
15:00 +26°C° 0.2 mm 2 mps 742 mmHg 58%
16:00 +25°C° 0.2 mm 3 mps 742 mmHg 66%
17:00 +22°C° 0.2 mm 3 mps 741 mmHg 74%
18:00 +21°C° 0.2 mm 2 mps 741 mmHg 81%
19:00 +20°C° 0.2 mm 1 mps 741 mmHg 88%
20:00 +17°C° 0.2 mm 0 mps 741 mmHg 95%
21:00 +19°C° 1.2 mm 1 mps 741 mmHg 96%
22:00 +17°C° 1.2 mm 2 mps 741 mmHg 97%
23:00 +17°C° 1.2 mm 3 mps 741 mmHg 98%
Show more